Regional Weather Roundup
Issued by NWS Goodland, KS

Home | Current Version | Previous Version | Graphics & Text | Print | Product List | Glossary Off
Versions: 1 2 3 4 5 6 7 8 9 10 11 12 13 14 15 16 17 18 19 20 21 22 23 24 25 26 27 28 29 30 31 32 33 34 35 36 37 38 39 40 41 42 43 44 45 46 47 48 49 50

000
ASUS43 KGLD 100159
RWRGLD

GOODLAND FORECAST AREA HOURLY WEATHER ROUNDUP
NATIONAL WEATHER SERVICE GOODLAND KS
700 PM MST FRI DEC 09 2016

...OFFICIAL OBSERVATIONS...

CITY           SKY/WX    TMP DP  RH WIND       PRES   REMARKS
GOODLAND KS    CLOUDY    23  19  85 SE6       30.19F
HILL CITY KS   CLEAR     20  12  71 SE6       30.32S
IMPERIAL NEB   CLOUDY    19  14  81 E7        30.25R
MCCOOK NEB     CLOUDY    19  12  74 E8        30.30R
AKRON CO       CLOUDY    23  14  68 SE12      30.14F WCI  12
BURLINGTON CO  CLOUDY    23  15  71 SE7       30.18R
LIMON CO       CLOUDY    27  18  69 SE10      30.15R WCI  17
$$

...UNOFFICIAL OBSERVATIONS...

CITY           SKY/WX    TMP DP  RH WIND       PRES   REMARKS
COLBY KS       CLEAR     25  21  86 SE9       30.24F
LENORA KS        N/A     21  32 100 MISG        N/A
NORTON KS      CLEAR     16   9  73 E6        30.31R
SHARON SPRINGS   N/A     26  21  81 SE6         N/A
TRENTON NEB      N/A     20  32 100 E7          N/A
KIT CARSON CO    N/A     24  13  61 CALM        N/A
YUMA CO        FAIR      19  12  73 CALM      30.18S
$$




USA.gov is the U.S. government's official web portal to all federal, state and local government web resources and services.